User: anonymous   Login
Location: Unspecified
(0.0000°N, 0.0000°E)
Time: 14:11:04
(UTC+01:00)
Language:

Meteor 1-31 Rocket - Orbit

View from above orbital plane
View from above orbital plane
View from above satellite
View from above satellite

Ground track
Ground track

The orbit data is extracted from the following two-line orbital elements,

1 12586U 81065B   14326.15579326  .00004383  00000-0  29589-3 0  5244
2 12586 097.4107 318.9874 0020610 176.5047 183.6329 15.06934181815049
Epoch (UTC): 22 November 2014 03:44:20
Eccentricity: 0.0020610
inclination: 97.4107°
perigee height: 531 km
apogee height: 560 km
right ascension of ascending node: 318.9874°
argument of perigee: 176.5047°
revolutions per day: 15.06934181
mean anomaly at epoch: 183.6329°
orbit number at epoch: 81504

The dashed part of the orbit path shows where the satellite is in the earth's shadow,  

DLR